Simultaneous Nadir Overpasses (SNOs) Predictions

Prediction of SNOs between GOES-17 and METOP-B Satellite Orbit:

Table of predicted SNOs for the next 14.0 days since TLE Epoch: 4/24/2021
Index Date Time (GOES-17) GOES-17 Lat,Lon METOP-B Lat,Lon Distance(km) Time Diff (sec)
1 04/24/2021 18:28:15 0.04,-137.21 -0.61,-134.32 329.51 80
2 04/26/2021 06:47:17 -0.04,-137.19 -0.40,-138.92 196.10 80
3 04/27/2021 06:23:59 -0.04,-137.19 0.70,-133.93 372.17 80
4 04/28/2021 18:42:51 0.04,-137.19 0.36,-138.48 148.12 80
5 04/29/2021 18:24:54 0.04,-137.18 -0.81,-133.50 419.62 80
6 05/01/2021 06:43:55 -0.03,-137.15 -0.26,-138.09 107.74 80
7 05/02/2021 06:20:36 -0.03,-137.13 0.85,-133.09 459.50 80
8 05/03/2021 18:39:30 0.02,-137.12 0.15,-137.66 61.99 80
9 05/06/2021 06:40:33 -0.02,-137.07 -0.05,-137.27 22.52 80
